Location: Newark
(40.9833°N, 0.0333°W)
Time: 03:42:32
(UTC+00:00)

Transit 2A Rocket - Pass Details

Date: 03 November 2020
Orbit: 588 x 914 km, 66.7° (Epoch: 26 November)

Event Time Altitude Azimuth Distance (km) Brightness Sun altitude
Rises 16:56:02 0° 330° (NNW) 3,243 8.4 -1.3°
Reaches altitude 10° 16:58:33 10° 332° (NNW) 2,259 7.6 -1.8°
Maximum altitude 17:03:41 81° 59° (ENE) 704 4.8 -2.7°
Drops below altitude 10° 17:08:19 10° 148° (SSE) 2,044 7.1 -3.5°
Sets 17:10:29 0° 149° (SSE) 2,911 7.9 -3.9°
